Location: Feigenhofen
(48.4939°N, 10.7793°E)
Time: 22:36:08
(UTC+00:00)

Cosmos 1606 Rocket - Pass Details

Date: 26 May 2022
Orbit: 601 x 632 km, 82.5° (Epoch: 24 June)

Event Time Altitude Azimuth Distance (km) Brightness Sun altitude
Rises 02:26:49 0° 346° (NNW) 2,919 7.5 -8.2°
Reaches altitude 10° 02:29:06 10° 343° (NNW) 2,003 6.6 -7.9°
Maximum altitude 02:33:26 56° 265° (W) 737 3.7 -7.4°
Drops below altitude 10° 02:37:42 10° 188° (S) 1,967 5.7 -6.9°
Sets 02:39:55 0° 184° (S) 2,862 6.5 -6.6°
